VIASAT-3 F2

Last updated on Sun Dec 14 2025 00:02:05 GMT+0000 (Coordinated Universal Time)

1 66454U 25261A 25346.93353563 -.00000081 00000+0 00000+0 0 9996 2 66454 5.3891 292.3457 2249784 185.8732 3.7550 2.09869596 649
UTC large
Height (km)
Speed (km/s)
/
Latitude / Longitude
Inclination (degrees)
Orbital Period (minutes)
Azimuth
Elevation
Range (km)
Doppler Factor

Next 0 passes for location: London (51.5072 / 0.1276)

Sorry there are no passes over London.